Home > Time Zones > World Clock > Weather > Yemen > Sana > Past weeks

Flag for Yemen Weather past 2 weeks in Sana, Yemen

Now
43 °F

Clear.


Feels Like: 41 °F
Forecast: 36 / 77 °F
Wind: 3 mph from Southwest

Location: Sana'A Airport

Current Time: Jan 30, 2015 at 4:25:15 AM

Latest Report: Jan 30, 2015 at 4:00 AM


Visibility: 10 mi

Pressure: 30.33 "Hg

Humidity: 24%

Dew point: 9 °F

Location of SanaLocation

Historic Weather in Sana — Graph

°F

Sana temperature yesterday

Maximum temperature yesterday: 79 °F (at 3:00 PM)
Minimum temperature yesterday: 43 °F (at 5:00 AM)
Average temperature yesterday: 60 °F

Past Weeks' High & Low Weather Summary

 TemperatureHumidityPressure
High79 °F (Jan 28, 3:00 PM)81% (Jan 21, 4:00 AM)30.45 "Hg (Jan 21, 4:00 AM)
Low36 °F (Jan 24, 7:00 AM)5% (Jan 26, 4:00 PM)30.21 "Hg (Jan 17, 2:00 PM)
Average57 °F30%30.33 "Hg
* Reported Jan 15 3:00 AM — Jan 30 3:00 AM, Sana, Weather by CustomWeather, © 2014

Note: Actual official high and low records may vary slightly from our data, if they occured in-between our weather recording intervals... More about our weather records

Advertising

Sana weather history for previous 24 hours

 ConditionsComfort  
Time TempWeatherWind HumidityBarometerVisibility
3:00 AM
Jan 30
46 °FClear.1 mph23%30.33 "Hg10 mi
2:00 AM48 °FClear.No wind21%30.36 "Hg10 mi
1:00 AM48 °FClear.3 mph20%30.36 "Hg10 mi
12:00 AM54 °FClear.5 mph18%30.39 "Hg10 mi
11:00 PM
Jan 29
54 °FClear.No wind18%30.39 "Hg10 mi
10:00 PM57 °FPassing clouds.3 mph21%30.39 "HgN/A
9:00 PM59 °FPassing clouds.3 mph23%30.39 "HgN/A
8:00 PM61 °FClear.7 mph17%30.36 "Hg10 mi
7:00 PM64 °FClear.10 mph11%30.33 "Hg10 mi
6:00 PM70 °FClear.9 mph11%30.30 "Hg10 mi
5:00 PM75 °FSunny.10 mph8%30.27 "Hg10 mi
4:00 PM77 °FSunny.7 mph7%30.27 "Hg10 mi
3:00 PM79 °FSunny.7 mph5%30.24 "Hg10 mi
2:00 PM77 °FSunny.7 mph6%30.27 "Hg10 mi
1:00 PM75 °FSunny.5 mph6%30.30 "Hg10 mi
12:00 PM73 °FSunny.6 mph7%30.33 "Hg10 mi
11:00 AM72 °FSunny.2 mph7%30.36 "Hg10 mi
10:00 AM66 °FSunny.2 mph9%30.39 "Hg10 mi
9:00 AM57 °FSunny.3 mph11%30.36 "Hg10 mi
8:00 AM50 °FSunny.No wind16%30.36 "Hg10 mi
7:00 AM43 °FSunny.3 mph21%30.33 "Hg10 mi
6:00 AM43 °FClear.2 mph22%30.30 "Hg10 mi
5:00 AM43 °FPassing clouds.3 mph21%30.27 "HgN/A
4:00 AM46 °FClear.3 mph18%30.27 "Hg10 mi
Weather by CustomWeather, © 2014

See weather overviewHow to use our weather pages